COSMOS 1723

导读 | 豆包AI

COSMOS 1723(宇宙1723)是苏联(独联体CIS)于1986年1月9日发射的人造卫星,属于苏联/俄罗斯历史悠久、规模庞大的“宇宙号”卫星系列。该系列是全球最大卫星家族,多以军用任务为主,涵盖技术试验、空间探测等多种用途。COSMOS 1723延续了该系列混编多任务的设计传统,是冷战时期苏联航天活动的组成部分,服务于当时空间技术验证与军事应用需求。

基本信息
目录编号:
16456
目录名称:
COSMOS 1723
国际标识:
1986-002H
轨道中心:
EARTH
卫星名称:
COSMOS 1723
卫星全名:
--
卫星状态:
在轨 (已飞行14664 天)
发射日期:
1986-01-09 UTC
国别 :
俄罗斯(独联体) (CIS)
星等 :
--
轨道信息
数据来源 国际轨道数据 AOE轨道数据
星历时间 2026-03-04T11:16:22+0800
4小时前
查看轨道信息
2026-03-04T07:00:00+0800
9小时前
查看轨道信息
半长轴 7818.453km 7818.458km
偏心率 0.0052755 0.0052712
轨道倾角 73.987° 73.988°
近地点辐角 214.287° 214.730°
升交点赤经 214.410° 214.648°
平近点角 260.024° 174.968°
近地点 1399.069km 1399.108km
远地点 1481.563km 1481.534km
周期 114.668分钟 114.668分钟
每日圈数 12.558032 12.558018
详细信息
使用方式:
暂无
2D轨道图
3D轨道图
轨道高度分析图
轨道倾角分析图
轨道综合分析图
查看轨道综合分析图